RH
79 82 81 83 83 83 84 83 85 82 80 84 84 84 81 79 78 77 76 76 76 77 74 75 77 78 76 73 75 71 72 74 73 75 70 57 44 45 48 51 56 57 51 45 44 43 42 39 35 32 27 26 27 28 29 30 30 30 30 31 32 32 30 29 28 27 28 31 34 34 32 31 32 36 39 40 40 42 44 43 42 42 41 40 39 37 36 35 33 32 31 30 29 29 28 27 27
74 80 80 82 82 81 83 83 85 83 80 84 85 82 77 78 78 76 76 73 74 75 73 77 76 76 77 73 74 71 69 69 69 73 64 48 44 49 49 47 52 56 50 45 44 43 41 37 32 28 24 25 26 28 28 28 29 30 31 31 33 34 34 34 34 35 37 38 39 38 34 31 31 33 35 37 38 40 41 40 41 42 42 42 41 40 39 38 36 33 31 30 29 28 27 26 26
71 77 79 80 82 82 85 85 84 85 88 85 81 79 77 79 78 77 77 73 75 76 76 78 75 75 75 73 73 71 70 67 66 68 57 46 47 52 50 49 54 54 50 46 44 42 40 35 29 25 23 24 25 28 28 28 30 32 32 33 35 36 37 38 40 43 43 42 42 42 39 36 34 34 35 36 37 38 39 39 41 42 43 43 43 44 43 41 40 37 35 34 32 31 29 29 28
70 75 77 79 83 84 85 84 80 82 90 83 76 80 78 79 80 77 77 77 78 78 78 77 73 75 75 74 73 69 69 68 65 59 50 50 50 50 50 51 54 52 49 47 43 39 37 33 26 23 23 23 26 28 28 31 33 33 34 36 36 37 41 44 46 48 48 45 44 44 44 41 40 40 40 40 40 41 41 41 42 42 43 44 44 45 44 43 42 41 40 39 37 36 34 33 33
69 74 76 80 83 84 83 81 78 79 86 83 81 82 77 80 81 77 78 78 79 77 76 75 73 73 74 75 73 70 70 68 64 56 53 57 52 47 49 51 53 49 49 48 41 37 35 30 24 23 23 24 28 30 31 33 33 33 36 37 38 41 47 50 51 51 51 48 46 46 45 43 43 44 44 43 43 43 43 42 42 42 43 44 44 44 44 44 43 44 43 42 42 41 40 39 38
68 73 76 79 82 83 82 81 77 76 80 82 85 83 77 79 79 78 80 80 79 77 75 75 75 74 74 75 72 71 70 67 65 60 58 57 48 44 46 50 51 46 47 48 40 36 34 27 23 23 23 27 31 32 33 32 32 35 37 39 44 49 52 53 54 52 52 51 48 47 46 45 45 46 47 46 45 44 44 44 43 42 43 43 43 44 44 45 45 45 44 43 43 42 41 39 39
65 70 74 74 76 80 79 78 75 75 78 78 80 80 77 77 77 78 78 79 81 80 77 77 77 76 76 75 73 72 69 66 66 63 56 49 43 42 46 49 49 46 46 47 39 34 32 26 24 24 26 30 32 33 32 33 35 38 39 45 51 54 55 56 55 55 53 52 50 48 48 48 48 48 49 48 47 46 46 45 44 44 44 44 43 44 44 44 45 44 43 42 42 41 41 40 40
67 70 72 72 72 75 74 75 76 76 79 75 73 76 77 75 74 77 78 79 81 82 79 77 78 79 79 77 76 74 71 69 67 63 53 43 39 40 46 48 47 47 48 46 37 33 31 26 26 27 29 32 32 33 33 35 37 39 45 51 54 54 55 56 56 56 55 53 52 51 51 51 51 50 49 47 47 46 45 45 45 44 43 43 43 43 43 43 43 42 43 43 43 43 43 43 43
69 70 70 71 71 76 74 74 77 76 77 76 73 73 76 75 73 74 78 81 80 81 81 77 79 83 81 79 79 74 71 70 66 61 50 41 38 38 45 49 49 51 52 46 36 33 31 28 28 29 30 32 34 35 36 37 38 43 50 51 51 52 54 56 57 57 56 55 54 54 52 52 52 50 48 46 45 44 44 44 43 44 43 43 43 42 43 43 43 43 45 45 45 44 45 44 44
69 71 69 69 69 73 75 73 75 75 74 73 72 72 75 77 76 75 77 81 79 79 80 76 77 82 80 80 80 74 71 70 67 62 49 39 38 39 44 51 52 54 55 44 34 34 31 29 29 30 32 34 35 36 36 37 41 48 50 50 50 51 53 56 58 58 57 55 55 55 53 52 51 49 47 46 45 45 45 44 44 44 44 44 44 43 44 44 44 45 46 45 45 44 45 45 45
69 69 65 67 68 68 72 73 74 75 72 71 72 73 75 74 75 77 77 81 80 77 78 76 75 78 79 81 81 78 72 68 65 60 49 41 39 40 45 52 54 56 55 42 33 34 32 30 31 32 34 35 35 35 36 38 45 49 49 49 49 50 53 56 58 58 56 55 54 54 52 49 47 47 48 47 47 46 45 44 43 44 43 43 44 45 44 45 45 44 44 44 45 44 45 45 47
68 67 65 65 63 63 67 70 75 77 73 72 75 77 77 74 73 76 76 79 76 73 76 76 75 76 79 82 83 81 74 69 67 59 49 44 42 43 47 54 56 56 56 43 33 33 32 32 32 34 35 34 34 33 37 42 47 48 46 46 45 47 51 55 57 56 54 51 50 49 47 46 45 45 45 45 43 42 42 42 43 44 43 43 44 44 44 44 43 42 42 44 44 43 45 47 50
69 70 72 65 57 60 63 68 75 75 72 71 75 77 76 76 73 73 73 76 76 73 75 77 77 77 80 83 81 82 75 71 70 59 50 47 42 44 48 52 56 57 54 41 32 33 31 31 33 35 33 32 32 34 40 45 46 45 44 44 42 43 45 48 50 49 47 45 44 43 43 44 44 43 42 42 41 41 41 42 44 45 44 44 43 43 42 41 40 41 42 42 42 43 46 49 52
73 73 76 68 57 59 61 67 73 73 76 75 77 78 75 76 74 72 70 72 75 72 73 76 77 77 82 83 81 81 73 69 67 58 53 48 41 44 47 49 54 57 55 42 32 32 29 31 34 32 32 31 31 36 44 46 44 42 42 41 38 38 38 39 40 41 41 41 41 42 42 43 42 42 43 43 43 42 43 43 44 44 43 43 42 41 40 38 38 41 41 41 43 45 48 51 54
76 74 75 71 64 61 59 65 71 74 79 77 79 79 74 73 73 73 71 71 73 71 73 77 77 77 80 82 82 79 72 73 68 56 53 49 42 45 47 47 52 56 56 46 36 33 30 31 33 31 32 32 34 40 45 44 41 39 37 36 34 34 35 36 37 38 39 39 40 41 40 40 40 40 41 41 41 41 41 42 43 43 42 40 39 38 37 36 37 40 41 42 45 48 50 53 55
79 79 75 73 68 63 60 64 70 73 74 73 77 77 74 75 74 73 70 70 72 71 73 76 78 78 80 80 79 73 71 74 67 56 53 48 44 47 49 45 48 55 53 45 41 37 30 31 32 31 35 37 38 42 44 42 40 37 34 32 32 33 35 35 36 36 36 36 36 36 36 35 35 35 36 37 37 38 39 40 41 41 40 38 37 36 36 36 37 39 42 44 48 50 52 54 54
79 81 77 75 69 63 63 66 72 75 73 73 76 75 77 78 76 74 71 69 69 68 70 75 78 80 81 80 77 71 68 69 61 55 52 47 44 48 50 45 43 50 49 42 40 37 35 36 34 35 41 41 40 42 42 41 39 37 34 32 32 33 33 34 34 34 33 32 31 31 31 31 32 33 33 34 36 36 37 39 40 40 38 37 36 34 35 36 37 40 42 44 47 49 52 53 55
78 78 80 79 73 70 69 66 69 71 71 74 75 74 76 75 74 75 74 71 69 66 68 74 77 80 80 77 76 71 65 64 57 51 47 45 46 47 47 44 42 45 44 40 38 34 39 42 39 42 46 44 44 44 42 40 38 37 35 35 34 33 33 35 34 33 31 29 28 28 29 33 35 35 34 36 36 36 37 37 38 38 38 37 36 36 38 39 40 42 44 47 49 51 54 56 59
76 76 79 79 76 75 73 71 70 70 70 71 72 72 73 74 72 73 76 73 70 67 67 74 77 78 79 76 75 69 61 59 55 47 43 43 45 45 45 44 43 42 40 38 36 33 40 45 43 47 48 47 47 45 43 39 37 37 38 38 36 35 35 36 36 36 33 30 29 30 35 39 40 39 39 41 40 38 38 37 37 38 39 39 40 42 44 46 47 48 50 52 55 57 58 59 61
72 74 76 75 76 74 71 74 75 74 74 72 72 73 71 72 72 72 75 73 70 66 64 71 75 77 77 74 71 65 60 58 54 46 42 44 44 44 45 45 42 41 40 37 34 33 39 45 46 50 50 49 48 46 44 40 38 39 40 41 39 39 39 40 41 41 39 37 35 38 43 45 45 44 44 45 43 41 40 40 41 42 43 44 45 48 49 50 52 54 54 56 58 58 58 57 57
71 73 72 70 72 71 70 75 77 75 74 74 75 76 74 71 71 71 73 74 73 66 61 67 73 75 74 71 67 64 63 60 55 47 43 44 45 47 45 44 43 39 39 36 33 34 39 44 47 51 51 50 50 47 46 42 41 43 43 44 42 43 44 45 45 45 43 43 41 45 49 48 48 46 44 43 40 42 44 43 45 45 46 48 49 51 52 52 55 57 56 56 56 57 56 55 54
72 71 72 71 70 69 70 74 76 74 71 72 72 76 77 74 72 72 71 74 74 67 63 68 74 75 72 68 64 64 63 58 53 47 43 43 47 53 48 45 46 40 38 35 32 37 40 43 47 51 51 51 51 48 47 45 43 45 46 45 45 46 47 48 47 46 45 43 41 47 51 49 48 47 43 40 40 46 50 48 47 49 50 50 52 53 54 56 57 57 55 54 54 56 57 56 58
72 67 69 73 70 69 72 75 74 72 72 72 72 74 75 74 74 71 71 74 75 71 67 68 76 78 72 65 59 60 59 53 50 43 41 45 47 52 46 43 47 39 36 34 33 38 41 43 47 50 51 51 51 49 47 46 46 47 48 46 47 48 48 49 47 45 45 42 41 48 52 49 48 50 46 42 46 51 53 54 54 56 56 55 57 59 61 61 60 60 59 57 57 58 60 60 61
71 67 68 73 74 71 74 77 72 71 73 75 76 75 75 75 74 71 72 76 74 73 69 66 74 76 69 63 58 58 53 47 46 39 40 48 49 51 45 42 46 39 34 34 34 38 40 43 47 48 50 50 50 50 47 46 48 48 47 47 49 51 50 49 47 47 48 43 42 49 52 48 47 51 50 48 51 54 53 54 57 57 59 61 64 67 68 65 63 65 65 63 62 61 62 60 58
70 71 74 77 79 75 76 79 72 71 75 77 78 78 77 76 74 71 71 74 73 73 71 68 71 72 64 60 60 59 52 46 44 41 46 52 49 50 48 45 46 38 33 33 35 39 38 42 49 48 50 51 49 50 47 47 49 48 48 50 51 51 50 49 49 49 50 44 44 49 51 50 48 50 52 51 49 50 50 51 54 57 59 61 64 67 69 68 66 66 68 67 63 61 61 60 54
69 77 82 80 80 76 76 79 74 73 77 78 78 79 80 78 75 73 72 73 74 74 72 70 72 72 65 56 54 55 53 49 45 46 50 50 47 47 47 48 47 36 33 34 36 39 36 40 49 50 51 52 50 50 48 47 49 49 49 49 49 49 49 50 49 49 48 46 48 51 53 54 54 55 55 52 49 49 51 51 53 58 58 59 63 65 68 71 67 61 64 64 59 56 54 51 47
68 76 80 77 79 77 75 77 77 77 79 79 79 82 83 80 77 76 76 74 73 74 72 71 73 75 71 57 49 51 52 48 46 48 48 47 45 43 45 48 43 35 35 35 37 39 35 38 47 51 50 50 51 51 50 49 50 50 49 48 48 48 49 51 50 50 50 51 52 52 53 55 58 61 57 53 53 51 53 55 54 57 60 62 64 65 66 68 65 58 58 57 53 51 45 41 42
71 74 75 73 75 76 73 75 79 78 78 80 80 83 84 81 78 77 77 75 73 73 71 72 74 75 70 56 49 51 47 45 49 48 43 43 43 42 44 45 40 36 36 36 38 38 36 38 46 51 51 49 51 53 53 51 50 51 49 49 49 49 50 53 54 53 53 53 53 51 51 53 57 60 56 53 55 53 54 56 56 58 61 62 64 64 64 63 60 56 53 49 47 46 44 44 46
73 73 75 72 72 76 74 72 77 79 80 80 79 83 87 85 82 78 76 75 73 72 73 74 74 74 66 52 48 50 46 47 49 44 41 41 41 41 44 43 39 38 40 38 38 38 36 37 44 51 50 47 48 52 52 50 49 49 50 52 52 51 52 53 55 56 55 53 54 52 48 50 53 56 54 51 53 55 56 56 55 57 58 60 62 61 60 58 54 53 51 48 48 50 50 51 50
69 70 72 70 73 76 73 71 74 79 83 80 81 87 91 89 85 81 78 77 74 73 78 76 72 72 64 53 49 47 48 49 45 42 43 42 41 41 41 42 39 41 44 39 36 38 36 36 41 46 47 45 46 47 48 49 50 50 52 56 54 51 53 53 54 56 56 55 54 53 48 47 49 52 53 50 50 52 54 54 54 55 56 58 60 58 56 55 53 54 57 57 58 58 58 57 56
66 69 70 68 74 75 70 70 73 79 82 80 82 89 91 89 87 84 83 82 77 75 79 77 73 69 60 53 50 48 49 48 44 43 44 41 40 39 39 42 41 42 44 38 37 38 36 35 38 43 44 44 46 45 45 50 52 50 51 54 53 51 53 53 53 54 53 53 53 50 45 43 43 44 47 46 46 46 48 51 52 52 55 56 57 57 57 59 59 60 62 61 61 61 58 56 54
66 70 70 66 72 76 72 70 73 78 81 81 84 90 93 90 88 85 85 85 79 75 77 78 74 67 56 49 48 48 48 45 43 43 42 40 39 38 38 41 42 42 42 38 39 39 37 35 36 41 42 42 48 48 46 51 51 49 49 50 51 50 49 48 49 49 47 47 47 44 38 35 35 37 39 41 42 43 44 46 48 50 52 52 53 55 55 58 60 60 59 57 56 56 52 47 48
64 70 74 69 69 75 73 70 73 77 78 79 83 89 93 92 89 86 85 83 78 75 75 78 74 62 52 47 45 45 46 44 42 42 41 39 38 39 38 39 41 41 41 40 39 39 39 37 36 39 41 41 48 50 47 48 47 47 46 45 47 45 43 44 43 42 42 41 40 39 36 33 33 34 35 37 39 42 42 42 46 50 50 48 49 51 51 53 54 54 52 52 52 51 47 44 47
62 69 75 71 67 69 70 69 70 75 77 76 79 86 89 91 88 85 85 82 78 75 75 78 70 57 47 44 44 42 43 43 41 41 40 39 39 39 39 39 42 41 42 42 38 40 40 37 36 39 41 42 44 46 45 46 45 45 44 42 43 41 39 39 37 38 41 44 42 38 37 36 34 34 34 34 34 39 41 41 44 48 48 47 48 49 50 50 51 52 51 51 50 49 46 44 44
59 72 76 71 68 65 67 66 65 69 75 75 80 85 87 88 85 85 87 85 83 77 77 78 64 50 41 39 42 38 40 41 40 40 39 39 39 40 41 40 42 41 41 43 39 41 41 35 37 38 40 40 39 41 42 41 41 41 41 39 39 39 37 35 36 39 40 44 46 41 38 39 38 36 34 33 33 35 38 39 39 42 45 47 48 50 51 51 51 52 51 51 50 48 45 44 46
60 74 74 70 72 69 63 60 60 64 70 73 79 83 85 86 85 86 87 86 86 80 80 78 58 44 39 38 40 37 40 41 40 41 38 39 38 39 42 39 42 42 41 44 39 42 41 33 36 38 38 39 37 39 40 39 37 36 36 35 35 36 35 33 35 40 41 42 45 42 39 40 41 41 38 35 34 34 36 39 39 40 44 48 50 50 50 50 50 50 48 47 48 47 46 47 49
64 73 69 68 73 73 64 59 58 59 66 70 72 78 80 83 84 85 83 83 85 82 82 77 56 42 39 41 42 40 44 43 42 41 39 42 39 40 43 38 41 43 42 43 38 41 40 32 34 37 35 36 37 38 37 36 35 34 33 33 33 33 33 34 32 35 39 42 44 41 40 42 44 44 41 37 35 33 33 36 38 41 44 47 48 48 47 47 48 48 47 46 46 46 46 46 48
68 72 68 66 66 68 65 62 58 56 65 69 66 73 77 80 85 83 79 80 82 80 79 72 57 46 40 43 45 43 46 45 43 42 40 43 42 43 45 38 41 44 41 41 37 38 39 34 33 34 34 34 35 37 34 33 33 32 32 31 31 32 32 33 33 33 36 42 44 42 44 45 45 46 43 39 36 34 34 36 37 41 44 45 45 46 46 46 48 47 46 45 43 44 45 44 45
68 69 64 62 62 64 63 61 58 55 64 71 66 69 74 79 84 85 83 82 81 80 77 68 57 51 44 44 46 44 47 47 45 43 41 44 45 43 42 38 40 42 39 37 32 34 36 34 32 32 34 33 33 34 32 31 31 30 31 30 31 35 38 35 33 37 39 43 46 43 46 46 45 46 44 41 38 37 38 39 40 41 43 43 44 45 44 44 47 47 45 44 43 45 47 45 45
59 60 58 58 59 63 63 60 58 57 65 71 68 67 70 73 78 82 83 81 78 75 76 72 61 53 47 45 47 44 47 48 46 45 43 46 47 41 37 37 36 35 35 33 28 30 31 31 31 31 32 32 32 32 31 30 30 30 31 31 31 36 43 39 35 38 41 44 46 43 45 46 45 45 45 44 43 40 38 38 40 41 41 41 41 42 42 42 45 46 45 45 45 46 47 46 47
49 51 54 55 56 60 62 60 58 59 63 64 67 71 71 72 75 78 77 77 78 73 75 77 66 56 49 48 48 45 48 48 44 46 46 46 47 39 34 34 32 30 31 29 27 28 29 29 31 31 31 30 30 30 30 30 30 31 31 33 32 32 39 40 37 41 41 42 45 45 46 45 45 46 45 45 45 43 42 41 42 42 41 40 39 39 39 39 42 46 46 45 45 46 46 45 47
45 46 50 51 53 58 63 65 61 62 65 63 64 70 71 68 68 72 73 72 74 75 78 76 66 60 51 47 49 47 47 47 43 44 47 48 46 37 33 32 29 29 28 28 28 28 29 29 30 31 31 30 29 29 30 31 32 33 31 32 33 32 37 41 40 41 42 44 46 47 48 46 46 47 46 45 45 44 43 43 44 45 44 42 40 39 38 39 42 47 49 48 46 48 48 44 45
43 44 48 47 49 58 62 63 63 64 68 63 59 68 74 69 64 67 70 68 64 67 72 68 62 61 53 47 50 48 46 47 46 45 46 48 44 36 33 31 28 28 28 28 29 28 29 30 30 31 31 30 30 30 30 31 34 34 29 29 31 30 34 39 40 39 42 48 50 50 49 48 47 48 49 48 46 44 42 40 41 42 44 43 42 41 40 41 44 47 50 51 50 49 48 45 44
42 43 47 45 47 55 54 58 67 69 69 65 59 64 72 71 66 63 66 68 64 61 65 65 60 59 54 47 47 48 46 46 47 47 46 48 44 35 32 30 28 28 28 29 29 29 29 29 30 30 31 32 31 31 32 30 31 31 27 28 30 30 31 35 37 38 41 47 50 52 53 51 49 48 49 46 43 42 42 40 40 41 41 41 41 43 44 44 46 48 50 52 51 47 46 46 46
41 40 44 43 43 47 47 58 72 69 68 73 66 59 66 71 66 59 60 65 67 62 60 63 62 59 54 47 44 47 46 46 47 47 46 46 42 35 30 29 29 28 29 30 30 30 30 29 29 31 31 31 31 31 33 31 30 28 26 27 29 31 33 35 37 39 41 43 45 48 50 50 49 49 48 46 44 45 45 44 43 43 44 42 41 43 46 44 45 50 51 52 51 48 48 48 47
39 38 41 41 41 43 45 56 65 63 67 73 67 61 69 73 64 58 60 61 65 65 59 59 62 60 55 47 45 46 45 45 46 45 46 45 41 36 31 29 29 29 30 32 32 33 32 30 29 32 32 32 31 32 34 32 29 27 25 24 26 28 32 36 37 38 39 40 40 41 43 45 47 48 48 48 47 47 48 48 47 46 45 44 44 45 46 45 46 51 53 53 53 52 52 51 51
35 35 38 38 42 46 47 51 56 60 64 62 59 57 62 66 60 56 57 54 57 61 58 57 57 55 53 48 45 45 44 44 44 44 45 43 40 38 35 32 29 30 32 33 35 36 37 34 30 32 34 33 32 33 34 31 26 24 23 22 23 25 29 34 37 38 38 38 38 39 40 42 45 47 47 48 50 50 50 49 49 50 50 47 46 46 47 49 51 53 54 53 53 55 55 54 54
30 32 34 36 44 49 50 50 51 57 58 51 52 51 52 61 59 50 48 48 50 54 54 53 50 50 52 50 46 44 43 43 42 42 42 40 39 39 38 35 31 31 33 34 35 38 40 38 33 32 34 33 31 31 30 27 23 23 23 23 24 26 28 31 33 35 35 33 34 37 41 44 46 47 48 49 53 56 55 51 51 56 58 56 54 52 51 53 55 57 59 56 54 56 56 56 57
27 29 31 36 45 55 62 58 53 56 51 45 52 54 52 57 51 43 43 44 45 49 51 50 47 47 51 50 47 45 42 40 40 39 38 37 38 39 39 38 34 31 33 36 36 37 39 39 35 31 31 30 28 28 28 26 24 25 26 28 29 30 31 31 30 30 30 31 32 35 40 43 44 46 49 52 55 57 56 52 53 56 57 57 57 57 56 56 56 56 57 58 56 54 53 53 55
28 31 36 40 46 60 73 66 52 51 48 43 49 55 53 50 43 41 42 40 41 46 49 50 48 46 46 46 45 45 43 38 38 38 36 35 37 38 40 40 37 32 33 37 38 37 37 38 36 31 28 28 26 28 31 30 28 28 29 31 32 34 34 32 31 30 30 32 35 38 42 44 45 47 50 53 56 58 57 55 52 51 51 53 55 56 57 57 56 55 56 57 56 54 53 53 53
32 37 41 45 46 52 63 60 51 50 49 43 44 54 56 48 40 38 38 40 41 43 45 47 47 45 43 44 44 45 45 38 35 35 34 34 35 38 40 41 39 35 33 37 38 37 36 37 36 30 27 27 26 29 33 32 29 28 29 31 33 34 37 37 36 34 34 37 40 44 46 48 51 52 52 53 54 54 56 55 52 51 52 53 53 54 55 55 54 55 57 59 60 59 58 58 58
29 33 37 43 46 45 49 52 49 49 50 45 46 55 53 40 35 32 33 41 41 39 42 43 46 48 44 44 44 44 43 37 33 32 32 35 36 36 38 40 40 37 35 36 38 38 37 36 35 30 26 27 27 28 32 32 30 29 30 31 32 33 37 39 39 40 40 42 45 47 47 47 50 52 52 53 52 50 50 52 53 54 54 54 55 55 55 58 59 58 59 61 62 62 61 61 63
30 33 40 46 43 41 47 54 51 47 50 50 48 51 46 37 35 31 30 36 36 36 42 44 47 50 46 47 45 39 38 35 32 32 32 35 36 36 37 38 40 39 37 37 38 38 38 37 36 31 27 28 29 28 30 31 29 30 32 31 31 32 35 39 41 42 42 42 45 47 46 46 46 48 50 53 56 54 52 53 54 55 55 55 57 58 57 58 59 61 64 65 65 65 64 63 65
27 35 42 44 40 39 43 50 53 48 49 51 49 46 48 46 38 32 33 34 33 35 40 43 46 48 49 51 45 36 34 34 33 34 33 34 36 36 37 38 40 41 40 40 39 39 39 38 36 34 29 29 31 30 29 30 30 31 33 33 33 33 36 39 40 40 42 42 43 46 46 45 44 45 47 48 52 53 50 48 48 50 52 53 55 58 61 62 61 60 63 65 67 71 72 69 70
20 29 34 37 47 52 45 45 50 49 50 57 55 46 45 44 36 32 35 37 37 38 35 35 40 43 46 47 42 36 36 36 35 35 35 34 36 37 37 38 40 42 42 41 40 40 40 40 37 36 35 32 32 34 31 30 31 32 33 34 34 36 36 36 36 38 41 43 45 47 48 48 47 46 45 44 47 51 52 49 48 48 51 54 56 59 62 67 68 66 63 61 62 65 66 64 65
17 21 26 32 44 48 47 48 49 47 51 59 59 47 37 36 33 32 36 37 40 42 37 34 34 35 40 41 38 37 38 38 37 36 34 34 35 37 39 40 40 41 41 40 41 40 39 40 38 37 38 33 31 34 32 31 31 31 31 32 35 39 39 38 39 40 42 44 46 49 49 50 50 47 44 43 44 47 50 51 52 53 53 56 59 61 62 64 67 65 62 60 58 59 60 59 59
24 21 25 33 37 38 41 47 46 46 53 57 56 48 39 35 34 35 39 40 40 42 41 39 34 30 34 36 36 37 38 37 37 36 35 35 36 37 39 41 41 40 40 40 40 40 38 39 40 38 36 32 30 32 32 31 32 30 30 31 35 40 42 42 43 42 42 43 45 47 44 45 46 43 42 43 42 42 46 50 55 58 58 59 61 62 62 62 62 60 59 60 60 63 67 65 63
31 30 30 32 38 42 43 46 47 48 53 54 51 47 41 39 39 41 42 42 43 43 42 42 40 34 32 32 32 34 35 36 38 39 39 37 37 37 37 40 40 38 39 39 40 40 38 38 41 39 34 31 29 30 31 32 32 30 30 31 32 36 38 40 41 40 41 42 42 42 39 37 38 39 43 45 45 45 48 51 54 55 57 61 62 64 64 63 62 60 60 62 63 67 71 68 64